Change the Weather History Date:

Friday, January 31, 2014

  Actual Average Record
Temperature  
Mean Temperature 53 °F -  
Max Temperature 65 °F 54 °F 77 °F (2001)
Min Temperature 41 °F 40 °F 30 °F (2008)
Degree Days  
Heating Degree Days 12    
Growing Degree Days 3 (Base 50)    
Moisture  
Dew Point 36 °F    
Average Humidity 55    
Maximum Humidity 93    
Minimum Humidity 20    
Precipitation  
Precipitation 0.00 in 0.07 in - ()
Sea Level Pressure  
Sea Level Pressure 30.16 in    
Wind  
Wind Speed 2 mph ()    
Max Wind Speed 13 mph    
Max Gust Speed -    
Visibility 3.4 miles    
Events      
Averages and records for this station are not official NWS values.
T = Trace of Precipitation, MM = Missing Value Source: Averaged Metar Reports

Daily Weather History Graph

Daily Weather History Graph

Search for Another Location

Airport or City:

Trip Planner

Search our weather history database for the weather conditions in past years. The results will help you decide how hot, cold, wet, or windy it might be!

Date:

Astronomy

Jan. 31, 2014 Rise Set
Actual Time 6:30 AM EET 5:08 PM EET
Civil Twilight 6:04 AM EET 5:34 PM EET
Nautical Twilight 5:35 AM EET 6:03 PM EET
Astronomical Twilight 5:06 AM EET 6:32 PM EET
Moon 6:30 AM EET (1/31) 6:01 PM EET (1/31)
Length of Visible Light 11h 29m
Length of Day
10h 38m
New Moon, 0% of the Moon is Illuminated
Jan 31
New Moon
Feb 6
First Quarter
Feb 15
Full
Feb 22
Last Quarter
Mar 1
New

Hourly Weather History & Observations

Time (EET) Temp. Windchill Dew Point Humidity Pressure Visibility Wind Dir Wind Speed Gust Speed Precip Events Conditions
12:00 AM 46.4 °F 44.3 °F 39.2 °F 76% 30.21 in 3.1 mi SSW 4.6 mph - N/A   Haze
1:00 AM 46.4 °F - 37.4 °F 71% 30.18 in 3.1 mi Calm Calm - N/A   Haze
2:00 AM 49 °F - 32 °F 40% 30.06 in 3 mi Calm Calm - -   Haze
2:00 AM 44.6 °F - 39.2 °F 81% 30.18 in 3.1 mi Calm Calm - N/A   Mist
3:00 AM 44.6 °F - 41.0 °F 87% 30.18 in 3.1 mi Calm Calm - N/A   Mist
4:00 AM 42.8 °F - 39.2 °F 87% 30.18 in 3.1 mi Calm Calm - N/A   Mist
5:00 AM 43 °F - 41 °F 89% 30.17 in 3 mi Calm Calm - -   Mist
5:00 AM 42.8 °F - 41.0 °F 93% 30.18 in 3.1 mi Calm Calm - N/A   Mist
6:00 AM 42.8 °F - 39.2 °F 87% 30.18 in 3.1 mi Calm Calm - N/A   Mist
7:00 AM 41.0 °F - 39.2 °F 93% 30.21 in 3.1 mi Calm Calm - N/A   Mist
8:00 AM 43 °F - 40 °F 85% 30.23 in 3 mi East 4.6 mph - -   Mist
8:00 AM 42.8 °F 40.1 °F 41.0 °F 93% 30.21 in 3.1 mi East 4.6 mph - N/A   Mist
9:00 AM 50.0 °F - 39.2 °F 66% 30.21 in 3.1 mi East 5.8 mph - N/A   Haze
10:00 AM 53.6 °F - 37.4 °F 54% 30.21 in 3.1 mi SSE 9.2 mph - N/A   Haze
11:00 AM 56 °F - 35 °F 34% 30.21 in 3 mi East 13.4 mph - -   Haze
12:00 PM 57.2 °F - 35.6 °F 44% 30.15 in 3.7 mi SE 5.8 mph - N/A   Unknown
1:00 PM 59.0 °F - 35.6 °F 42% 30.15 in 3.7 mi ESE 5.8 mph - N/A   Unknown
2:00 PM 64 °F - 33 °F 20% 30.13 in 4 mi SSE 5.8 mph - -   Haze
2:00 PM 64.4 °F - 33.8 °F 32% 30.15 in 3.7 mi SSE 5.8 mph - N/A   Unknown
3:00 PM 62.6 °F - 30.2 °F 30% 30.12 in 4.3 mi SSW 4.6 mph - N/A   Unknown
4:00 PM 62.6 °F - 32.0 °F 32% 30.12 in 3.7 mi Calm Calm - N/A   Unknown
5:00 PM 61 °F - 32 °F 22% 30.12 in 4 mi SSE 8.9 mph - -   Haze
5:00 PM 60.8 °F - 32.0 °F 34% 30.12 in 3.7 mi SSE 4.6 mph - N/A   Unknown
6:00 PM 59.0 °F - 30.2 °F 34% 30.12 in 3.7 mi Calm Calm - N/A   Unknown
7:00 PM 57.2 °F - 30.2 °F 36% 30.12 in 3.7 mi Calm Calm - N/A   Unknown
8:00 PM 55 °F - 36 °F 37% 30.13 in 4 mi Calm Calm - -   Haze
8:00 PM 55.4 °F - 35.6 °F 47% 30.12 in 3.7 mi Calm Calm - N/A   Unknown
9:00 PM 53.6 °F - 33.8 °F 47% 30.12 in 3.7 mi Calm Calm - N/A   Unknown
10:00 PM 53.6 °F - 32.0 °F 44% 30.12 in 3.7 mi Calm Calm - N/A   Unknown
11:00 PM 52 °F - 33 °F 35% 30.13 in 3 mi Calm Calm - -   Haze
11:00 PM 51.8 °F - 32.0 °F 47% 30.12 in 3.1 mi Calm Calm - N/A   Haze